OBJECT X

基本信息
目录编号:
67269
目录名称:
OBJECT X
国际标识:
2025-313X
轨道中心:
EARTH
物体状态:
在轨
发射日期:
2025-12-28 UTC
国别:
(TBD)
轨道信息
数据来源: 国际轨道数据
星历时间: 2026-09-03T23:57:46+0800
半长轴: 6864.111km
偏心率: 0.0014801
轨道倾角: 97.390°
近地点辐角: 86.267°
升交点赤经: 320.749°
平近点角: 274.026°
近地点: 475.814km
远地点: 496.134km
周期: 94.327分钟
每日圈数: 15.266039
详细信息
发射场:
VOSTO
轨道高度:
LEO
数据来源:
AOE Integration Group
参考系:
TEME
时间系统:
UTC
历元类型:
SGP4
2D轨道图
3D轨道图
轨道高度分析图
轨道倾角分析图
轨道综合分析图
查看轨道综合分析图